When you browse on this site, cookies collect data to enhance your experience and personalize the content and advertising you see.
Visit our Privacy Policy to learn more. By continuing to use the site, you agree to this use of cookies and data.
  • en France
  • Liste des pays
  • À 7 jours
  • Température de l'eau
  • Carte satellitaire
  • Carte météo
  • Widgets météo
  • user-avatar
    Se connecter

    Météo par heure à Côte de l'Or

    Ce jour, 23 Janvier, Mercredi

    Heure Température Précipitation Vent Pression Humidité
    00:00 +24°C° 0 mm 2 m/s 757 mmHg 89%
    01:00 +24°C° 0 mm 2 m/s 757 mmHg 90%
    02:00 +24°C° 0 mm 2 m/s 757 mmHg 91%
    03:00 +24°C° 0 mm 2 m/s 756 mmHg 92%
    04:00 +24°C° 0 mm 3 m/s 756 mmHg 92%
    05:00 +24°C° 0 mm 3 m/s 756 mmHg 88%
    06:00 +25°C° 0 mm 3 m/s 756 mmHg 85%
    07:00 +26°C° 0 mm 3 m/s 756 mmHg 81%
    08:00 +28°C° 0 mm 3 m/s 756 mmHg 70%
    09:00 +31°C° 0 mm 3 m/s 756 mmHg 59%
    10:00 +33°C° 0 mm 3 m/s 756 mmHg 50%
    11:00 +35°C° 0 mm 4 m/s 756 mmHg 46%
    12:00 +36°C° 0 mm 4 m/s 755 mmHg 42%
    13:00 +39°C° 0 mm 5 m/s 755 mmHg 38%
    14:00 +36°C° 0 mm 5 m/s 754 mmHg 44%
    15:00 +35°C° 0 mm 5 m/s 754 mmHg 49%
    16:00 +34°C° 0 mm 5 m/s 754 mmHg 55%
    17:00 +32°C° 0 mm 5 m/s 754 mmHg 63%
    18:00 +29°C° 0 mm 5 m/s 754 mmHg 70%
    19:00 +28°C° 0 mm 4 m/s 754 mmHg 78%
    20:00 +27°C° 0 mm 4 m/s 754 mmHg 81%
    21:00 +26°C° 0 mm 3 m/s 755 mmHg 83%
    22:00 +26°C° 0 mm 3 m/s 755 mmHg 87%
    23:00 +26°C° 0.1 mm 3 m/s 755 mmHg 87%

    Demain, 24 Janvier, Jeudi

    Heure Température Précipitation Vent Pression Humidité
    00:00 +25°C° 0.1 mm 3 m/s 755 mmHg 88%
    01:00 +25°C° 0.1 mm 3 m/s 755 mmHg 88%
    02:00 +25°C° 0.5 mm 2 m/s 755 mmHg 89%
    03:00 +24°C° 0.5 mm 2 m/s 755 mmHg 91%
    04:00 +24°C° 0.5 mm 2 m/s 755 mmHg 92%
    05:00 +25°C° 0.3 mm 2 m/s 756 mmHg 89%
    06:00 +26°C° 0.3 mm 1 m/s 756 mmHg 86%
    07:00 +27°C° 0.3 mm 1 m/s 756 mmHg 83%
    08:00 +28°C° 0 mm 1 m/s 756 mmHg 76%
    09:00 +30°C° 0 mm 1 m/s 756 mmHg 69%
    10:00 +32°C° 0 mm 1 m/s 756 mmHg 62%
    11:00 +32°C° 0.1 mm 2 m/s 756 mmHg 61%
    12:00 +32°C° 0.1 mm 2 m/s 756 mmHg 60%
    13:00 +34°C° 0.1 mm 2 m/s 756 mmHg 59%
    14:00 +33°C° 0.2 mm 3 m/s 755 mmHg 61%
    15:00 +33°C° 0.2 mm 3 m/s 755 mmHg 64%
    16:00 +31°C° 0.2 mm 3 m/s 755 mmHg 67%
    17:00 +30°C° 0.1 mm 3 m/s 755 mmHg 72%
    18:00 +28°C° 0.1 mm 3 m/s 756 mmHg 77%
    19:00 +27°C° 0.1 mm 3 m/s 756 mmHg 82%
    20:00 +27°C° 0.1 mm 2 m/s 757 mmHg 83%
    21:00 +26°C° 0.1 mm 2 m/s 757 mmHg 84%
    22:00 +26°C° 0.1 mm 2 m/s 758 mmHg 86%
    23:00 +26°C° 0.3 mm 2 m/s 758 mmHg 88%

    Après-demain, 25 Janvier, Vendredi

    Heure Température Précipitation Vent Pression Humidité
    00:00 +26°C° 0.3 mm 2 m/s 757 mmHg 90%
    01:00 +25°C° 0.3 mm 2 m/s 757 mmHg 92%
    02:00 +25°C° 0.2 mm 1 m/s 757 mmHg 92%
    03:00 +25°C° 0.2 mm 1 m/s 757 mmHg 92%
    04:00 +25°C° 0.2 mm 1 m/s 757 mmHg 93%
    05:00 +23°C° 0 mm 0 m/s 757 mmHg 90%
    06:00 +24°C° 0 mm 0 m/s 757 mmHg 88%
    07:00 +25°C° 0 mm 0 m/s 758 mmHg 85%
    08:00 +28°C° 0 mm 1 m/s 758 mmHg 76%
    09:00 +30°C° 0 mm 2 m/s 757 mmHg 66%
    10:00 +33°C° 0 mm 3 m/s 757 mmHg 57%
    11:00 +33°C° 0.1 mm 3 m/s 757 mmHg 56%
    12:00 +33°C° 0.1 mm 4 m/s 757 mmHg 56%
    13:00 +34°C° 0.1 mm 4 m/s 756 mmHg 55%
    14:00 +33°C° 0 mm 4 m/s 756 mmHg 57%
    15:00 +33°C° 0 mm 4 m/s 756 mmHg 58%
    16:00 +32°C° 0 mm 4 m/s 755 mmHg 60%
    17:00 +30°C° 0 mm 4 m/s 756 mmHg 67%
    18:00 +28°C° 0 mm 3 m/s 756 mmHg 73%
    19:00 +27°C° 0 mm 3 m/s 756 mmHg 80%
    20:00 +26°C° 0.1 mm 3 m/s 757 mmHg 84%
    21:00 +26°C° 0.1 mm 3 m/s 757 mmHg 87%
    22:00 +25°C° 0.1 mm 3 m/s 758 mmHg 90%
    23:00 +25°C° 0.1 mm 3 m/s 758 mmHg 91%

    26 Janvier, Samedi

    Heure Température Précipitation Vent Pression Humidité
    00:00 +25°C° 0.1 mm 2 m/s 757 mmHg 91%
    01:00 +25°C° 0.1 mm 2 m/s 757 mmHg 91%
    02:00 +25°C° 0 mm 2 m/s 757 mmHg 91%
    03:00 +25°C° 0 mm 2 m/s 756 mmHg 92%
    04:00 +24°C° 0 mm 2 m/s 756 mmHg 92%
    05:00 +25°C° 0.1 mm 2 m/s 756 mmHg 89%
    06:00 +26°C° 0.1 mm 2 m/s 756 mmHg 86%
    07:00 +26°C° 0.1 mm 2 m/s 757 mmHg 83%
    08:00 +28°C° 0 mm 3 m/s 757 mmHg 74%
    09:00 +29°C° 0 mm 3 m/s 757 mmHg 65%
    10:00 +32°C° 0 mm 4 m/s 757 mmHg 56%
    11:00 +32°C° 0 mm 4 m/s 757 mmHg 53%
    12:00 +33°C° 0 mm 4 m/s 756 mmHg 51%
    13:00 +34°C° 0 mm 4 m/s 756 mmHg 49%
    14:00 +33°C° 0 mm 4 m/s 755 mmHg 52%
    15:00 +33°C° 0 mm 5 m/s 755 mmHg 56%
    16:00 +32°C° 0 mm 5 m/s 755 mmHg 59%
    17:00 +29°C° 0 mm 4 m/s 755 mmHg 66%
    18:00 +28°C° 0 mm 4 m/s 755 mmHg 72%
    19:00 +27°C° 0 mm 4 m/s 756 mmHg 79%
    20:00 +26°C° 0 mm 4 m/s 756 mmHg 82%
    21:00 +25°C° 0 mm 3 m/s 756 mmHg 84%
    22:00 +25°C° 0 mm 3 m/s 757 mmHg 87%
    23:00 +25°C° 0 mm 3 m/s 756 mmHg 86%

    27 Janvier, Dimanche

    Heure Température Précipitation Vent Pression Humidité
    00:00 +25°C° 0 mm 3 m/s 756 mmHg 85%
    01:00 +26°C° 0 mm 4 m/s 756 mmHg 84%
    02:00 +25°C° 0 mm 3 m/s 756 mmHg 85%
    03:00 +25°C° 0 mm 3 m/s 756 mmHg 87%
    04:00 +24°C° 0 mm 3 m/s 755 mmHg 88%
    05:00 +25°C° 0 mm 3 m/s 756 mmHg 85%
    06:00 +26°C° 0 mm 3 m/s 756 mmHg 81%
    07:00 +27°C° 0 mm 3 m/s 757 mmHg 77%
    08:00 +28°C° 0 mm 3 m/s 757 mmHg 70%
    09:00 +29°C° 0 mm 3 m/s 757 mmHg 63%
    10:00 +31°C° 0 mm 3 m/s 757 mmHg 56%
    11:00 +33°C° 0 mm 4 m/s 756 mmHg 52%
    12:00 +33°C° 0 mm 4 m/s 756 mmHg 49%
    13:00 +34°C° 0 mm 4 m/s 756 mmHg 46%
    14:00 +34°C° 0 mm 4 m/s 755 mmHg 49%
    15:00 +33°C° 0 mm 4 m/s 755 mmHg 52%
    16:00 +32°C° 0 mm 5 m/s 755 mmHg 55%
    17:00 +30°C° 0 mm 4 m/s 755 mmHg 62%
    18:00 +28°C° 0 mm 4 m/s 756 mmHg 70%
    19:00 +27°C° 0 mm 4 m/s 756 mmHg 77%
    20:00 +26°C° 0 mm 4 m/s 757 mmHg 79%
    21:00 +26°C° 0 mm 4 m/s 757 mmHg 81%
    22:00 +25°C° 0 mm 4 m/s 758 mmHg 84%
    23:00 +25°C° 0 mm 3 m/s 757 mmHg 86%

    28 Janvier, Lundi

    Heure Température Précipitation Vent Pression Humidité
    00:00 +25°C° 0 mm 3 m/s 757 mmHg 87%
    01:00 +25°C° 0 mm 3 m/s 757 mmHg 89%
    02:00 +25°C° 0.2 mm 2 m/s 757 mmHg 90%
    03:00 +25°C° 0.2 mm 2 m/s 757 mmHg 90%
    04:00 +25°C° 0.2 mm 2 m/s 757 mmHg 91%
    05:00 +25°C° 0.2 mm 2 m/s 757 mmHg 90%
    06:00 +26°C° 0.2 mm 2 m/s 758 mmHg 89%
    07:00 +27°C° 0.2 mm 2 m/s 758 mmHg 87%
    08:00 +28°C° 0.1 mm 2 m/s 758 mmHg 80%
    09:00 +29°C° 0.1 mm 3 m/s 758 mmHg 73%
    10:00 +30°C° 0.1 mm 3 m/s 758 mmHg 65%
    11:00 +31°C° 0 mm 3 m/s 758 mmHg 58%
    12:00 +33°C° 0 mm 3 m/s 757 mmHg 52%
    13:00 +35°C° 0 mm 4 m/s 757 mmHg 45%
    14:00 +34°C° 0 mm 4 m/s 757 mmHg 47%
    15:00 +33°C° 0 mm 4 m/s 756 mmHg 50%
    16:00 +33°C° 0 mm 4 m/s 756 mmHg 53%
    17:00 +30°C° 0 mm 4 m/s 757 mmHg 63%
    18:00 +28°C° 0 mm 4 m/s 757 mmHg 73%
    19:00 +27°C° 0 mm 3 m/s 758 mmHg 83%
    20:00 +26°C° 0 mm 3 m/s 758 mmHg 86%
    21:00 +26°C° 0 mm 3 m/s 759 mmHg 89%
    22:00 +25°C° 0 mm 3 m/s 759 mmHg 93%
    23:00 +25°C° 0 mm 3 m/s 759 mmHg 92%
    Voir plus